Terug naar catalogus

STARLINK-3328

ActiefCommunicatieVLEO
NORAD 50832·PAYLOAD·🇺🇸 United States

Gelanceerd Jan 6, 2022 vanaf Cape Canaveral Space Force Station

Loading…

Volgende Passages (komende 24 uur)

TLE

VersSource: CelesTrak SupGP

Epoch: Sep 15, 2026, 01:36 UTC

1 50832C 22001AF  26258.06715278 -.00025773  00000+0 -15074-2 0  2584
2 50832  53.1715  47.6539 0002125 111.6643 173.0362 15.11377528    11

Volg STARLINK-3328 in realtime met AllMySat

Download on the App Store